• In Germany
  • List of Countries
  • For 7 days
  • Water Temperature
  • Satellite Maps
  • Weather Map
  • Weather Widgets
  • user-avatar
    Login

    Hourly Weather Igls

    Today, 23 September, Saturday

    Time Temperature Precipitation Wind Pressure Humidity
    00:00 +9°C° 0 mm 1 mps 688 mmHg 83%
    01:00 +9°C° 0 mm 1 mps 688 mmHg 77%
    02:00 +9°C° 0 mm 1 mps 688 mmHg 77%
    03:00 +9°C° 0 mm 1 mps 687 mmHg 78%
    04:00 +9°C° 0 mm 1 mps 687 mmHg 79%
    05:00 +9°C° 0 mm 1 mps 687 mmHg 78%
    06:00 +9°C° 0 mm 1 mps 687 mmHg 77%
    07:00 +11°C° 0 mm 1 mps 688 mmHg 75%
    08:00 +13°C° 0.1 mm 1 mps 688 mmHg 71%
    09:00 +15°C° 0.1 mm 1 mps 688 mmHg 68%
    10:00 +16°C° 0.1 mm 1 mps 688 mmHg 65%
    11:00 +18°C° 0.2 mm 1 mps 688 mmHg 65%
    12:00 +18°C° 0.2 mm 1 mps 688 mmHg 65%
    13:00 +19°C° 0.2 mm 1 mps 688 mmHg 65%
    14:00 +18°C° 0.4 mm 1 mps 687 mmHg 70%
    15:00 +16°C° 0.4 mm 1 mps 687 mmHg 75%
    16:00 +16°C° 0.4 mm 1 mps 687 mmHg 79%
    17:00 +14°C° 0.2 mm 1 mps 686 mmHg 84%
    18:00 +13°C° 0.2 mm 1 mps 686 mmHg 89%
    19:00 +11°C° 0.2 mm 1 mps 686 mmHg 94%
    20:00 +11°C° 0.3 mm 1 mps 686 mmHg 95%
    21:00 +11°C° 0.3 mm 1 mps 687 mmHg 96%
    22:00 +10°C° 0.3 mm 1 mps 687 mmHg 96%
    23:00 +10°C° 0 mm 1 mps 687 mmHg 96%

    Tomorrow, 24 September, Sunday

    Time Temperature Precipitation Wind Pressure Humidity
    00:00 +10°C° 0 mm 1 mps 687 mmHg 96%
    01:00 +10°C° 0 mm 1 mps 686 mmHg 96%
    02:00 +10°C° 0.1 mm 1 mps 686 mmHg 96%
    03:00 +10°C° 0.1 mm 1 mps 686 mmHg 95%
    04:00 +10°C° 0.1 mm 1 mps 686 mmHg 95%
    05:00 +10°C° 0.2 mm 1 mps 686 mmHg 95%
    06:00 +11°C° 0.2 mm 1 mps 686 mmHg 95%
    07:00 +11°C° 0.2 mm 1 mps 686 mmHg 94%
    08:00 +12°C° 0.2 mm 1 mps 687 mmHg 89%
    09:00 +13°C° 0.2 mm 1 mps 687 mmHg 84%
    10:00 +14°C° 0.2 mm 1 mps 687 mmHg 78%
    11:00 +14°C° 0.3 mm 1 mps 687 mmHg 77%
    12:00 +15°C° 0.3 mm 1 mps 687 mmHg 76%
    13:00 +15°C° 0.3 mm 2 mps 687 mmHg 75%
    14:00 +15°C° 0.3 mm 2 mps 687 mmHg 77%
    15:00 +15°C° 0.3 mm 1 mps 687 mmHg 78%
    16:00 +14°C° 0.3 mm 1 mps 686 mmHg 79%
    17:00 +13°C° 0.1 mm 1 mps 686 mmHg 84%
    18:00 +11°C° 0.1 mm 1 mps 686 mmHg 89%
    19:00 +10°C° 0.1 mm 1 mps 686 mmHg 93%
    20:00 +10°C° 0 mm 1 mps 686 mmHg 94%
    21:00 +9°C° 0 mm 1 mps 687 mmHg 95%
    22:00 +9°C° 0 mm 1 mps 687 mmHg 95%
    23:00 +9°C° 0 mm 1 mps 687 mmHg 95%

    Day after tomorrow, 25 September, Monday

    Time Temperature Precipitation Wind Pressure Humidity
    00:00 +8°C° 0 mm 1 mps 687 mmHg 94%
    01:00 +8°C° 0 mm 1 mps 686 mmHg 94%
    02:00 +8°C° 0 mm 1 mps 686 mmHg 92%
    03:00 +8°C° 0 mm 1 mps 686 mmHg 90%
    04:00 +8°C° 0 mm 1 mps 686 mmHg 88%
    05:00 +8°C° 0 mm 1 mps 686 mmHg 87%
    06:00 +8°C° 0 mm 1 mps 686 mmHg 85%
    07:00 +8°C° 0 mm 1 mps 686 mmHg 84%
    08:00 +9°C° 0 mm 0 mps 686 mmHg 77%
    09:00 +12°C° 0 mm 0 mps 686 mmHg 70%
    10:00 +14°C° 0 mm 0 mps 687 mmHg 64%
    11:00 +15°C° 0 mm 0 mps 687 mmHg 61%
    12:00 +18°C° 0 mm 1 mps 686 mmHg 58%
    13:00 +18°C° 0 mm 1 mps 686 mmHg 55%
    14:00 +18°C° 0 mm 1 mps 686 mmHg 58%
    15:00 +18°C° 0 mm 1 mps 686 mmHg 61%
    16:00 +16°C° 0 mm 1 mps 686 mmHg 64%
    17:00 +14°C° 0 mm 1 mps 686 mmHg 71%
    18:00 +12°C° 0 mm 1 mps 686 mmHg 79%
    19:00 +8°C° 0 mm 0 mps 685 mmHg 86%
    20:00 +9°C° 0 mm 1 mps 686 mmHg 87%
    21:00 +9°C° 0 mm 1 mps 686 mmHg 87%
    22:00 +9°C° 0 mm 1 mps 686 mmHg 87%
    23:00 +9°C° 0 mm 1 mps 686 mmHg 87%

    26 September, Tuesday

    Time Temperature Precipitation Wind Pressure Humidity
    00:00 +9°C° 0 mm 1 mps 686 mmHg 87%
    01:00 +9°C° 0 mm 1 mps 686 mmHg 86%
    02:00 +9°C° 0 mm 1 mps 686 mmHg 87%
    03:00 +9°C° 0 mm 1 mps 686 mmHg 87%
    04:00 +9°C° 0 mm 1 mps 686 mmHg 87%
    05:00 +9°C° 0.1 mm 1 mps 686 mmHg 86%
    06:00 +10°C° 0.1 mm 1 mps 687 mmHg 86%
    07:00 +10°C° 0.1 mm 1 mps 687 mmHg 86%
    08:00 +12°C° 0 mm 1 mps 687 mmHg 80%
    09:00 +13°C° 0 mm 1 mps 687 mmHg 75%
    10:00 +15°C° 0 mm 1 mps 687 mmHg 69%
    11:00 +16°C° 0 mm 1 mps 687 mmHg 66%
    12:00 +18°C° 0 mm 1 mps 687 mmHg 63%
    13:00 +18°C° 0 mm 2 mps 687 mmHg 60%
    14:00 +17°C° 0.1 mm 2 mps 687 mmHg 64%
    15:00 +17°C° 0.1 mm 2 mps 687 mmHg 68%
    16:00 +16°C° 0.1 mm 2 mps 687 mmHg 72%
    17:00 +14°C° 0.2 mm 1 mps 687 mmHg 78%
    18:00 +13°C° 0.2 mm 1 mps 687 mmHg 84%
    19:00 +11°C° 0.2 mm 1 mps 687 mmHg 90%
    20:00 +11°C° 0.1 mm 1 mps 687 mmHg 90%
    21:00 +10°C° 0.1 mm 1 mps 687 mmHg 90%
    22:00 +10°C° 0.1 mm 1 mps 687 mmHg 90%
    23:00 +10°C° 0 mm 1 mps 687 mmHg 90%

    27 September, Wednesday

    Time Temperature Precipitation Wind Pressure Humidity
    00:00 +10°C° 0 mm 1 mps 687 mmHg 90%
    01:00 +9°C° 0 mm 1 mps 687 mmHg 89%
    02:00 +9°C° 0 mm 1 mps 687 mmHg 89%
    03:00 +9°C° 0 mm 1 mps 687 mmHg 89%
    04:00 +9°C° 0 mm 1 mps 687 mmHg 89%
    05:00 +9°C° 0 mm 1 mps 688 mmHg 88%
    06:00 +9°C° 0 mm 1 mps 688 mmHg 87%
    07:00 +9°C° 0 mm 1 mps 688 mmHg 87%
    08:00 +12°C° 0 mm 1 mps 689 mmHg 80%
    09:00 +14°C° 0 mm 1 mps 689 mmHg 73%
    10:00 +18°C° 0 mm 1 mps 690 mmHg 66%
    11:00 +18°C° 0 mm 1 mps 690 mmHg 63%
    12:00 +19°C° 0 mm 1 mps 690 mmHg 61%
    13:00 +20°C° 0 mm 1 mps 689 mmHg 58%
    14:00 +19°C° 0.2 mm 1 mps 689 mmHg 62%
    15:00 +19°C° 0.2 mm 1 mps 689 mmHg 66%
    16:00 +18°C° 0.2 mm 1 mps 689 mmHg 70%
    17:00 +15°C° 0.2 mm 1 mps 689 mmHg 77%
    18:00 +12°C° 0.2 mm 0 mps 689 mmHg 85%
    19:00 +10°C° 0.2 mm 0 mps 689 mmHg 92%
    20:00 +10°C° 0 mm 0 mps 689 mmHg 92%
    21:00 +10°C° 0 mm 1 mps 689 mmHg 92%
    22:00 +10°C° 0 mm 1 mps 690 mmHg 92%
    23:00 +10°C° 0 mm 1 mps 690 mmHg 91%

    28 September, Thursday

    Time Temperature Precipitation Wind Pressure Humidity
    00:00 +10°C° 0 mm 1 mps 690 mmHg 90%
    01:00 +9°C° 0 mm 1 mps 690 mmHg 90%
    02:00 +9°C° 0 mm 1 mps 690 mmHg 89%
    03:00 +9°C° 0 mm 1 mps 690 mmHg 89%
    04:00 +9°C° 0 mm 1 mps 690 mmHg 88%
    05:00 +9°C° 0 mm 1 mps 690 mmHg 88%
    06:00 +10°C° 0 mm 1 mps 690 mmHg 87%
    07:00 +10°C° 0 mm 1 mps 691 mmHg 86%
    08:00 +13°C° 0 mm 1 mps 691 mmHg 79%
    09:00 +15°C° 0 mm 1 mps 692 mmHg 72%
    10:00 +19°C° 0 mm 1 mps 692 mmHg 64%
    11:00 +20°C° 0 mm 1 mps 692 mmHg 62%
    12:00 +20°C° 0 mm 1 mps 692 mmHg 59%
    13:00 +21°C° 0 mm 1 mps 692 mmHg 57%
    14:00 +19°C° 0.2 mm 2 mps 692 mmHg 63%
    15:00 +18°C° 0.2 mm 2 mps 692 mmHg 68%
    16:00 +18°C° 0.2 mm 2 mps 692 mmHg 74%
    17:00 +16°C° 0.1 mm 2 mps 692 mmHg 81%
    18:00 +14°C° 0.1 mm 1 mps 692 mmHg 87%
    19:00 +12°C° 0.1 mm 1 mps 692 mmHg 94%
    20:00 +12°C° 0 mm 1 mps 692 mmHg 95%
    21:00 +12°C° 0 mm 1 mps 692 mmHg 95%
    22:00 +12°C° 0 mm 1 mps 692 mmHg 96%
    23:00 +11°C° 0 mm 1 mps 692 mmHg 96%
    Show more